DW4879 Weather Reports


Display with metric or nautical units.
time (UTC)temp
F
wind
direction
speed
MPH
gust
MPH
rain 1hr
in
rain 24hr
in
rain mn
in
humidity
%
barometer
mb
20260506044603 49 134 1.0 3.0 0.00 0.00 0.00 58 1014.9
20260506044005 49 159 0.0 6.0 0.00 0.00 0.00 58 1014.9
20260506043601 49 149 3.0 6.0 0.00 0.00 0.00 58 1014.9
20260506043002 49 140 3.0 6.0 0.00 0.00 0.00 58 1014.8
20260506042557 49 137 1.0 4.0 0.00 0.00 0.00 57 1014.8
20260506042104 49 184 2.0 4.0 0.00 0.00 0.00 57 1014.7
20260506041556 49 218 1.0 6.0 0.00 0.00 0.00 57 1014.8
20260506041102 49 232 2.0 6.0 0.00 0.00 0.00 57 1014.7
20260506040504 49 216 1.0 5.0 0.00 0.00 0.00 57 1014.6
20260506040010 49 244 2.0 5.0 0.00 0.00 0.00 57 1014.6
20260506035606 50 269 2.0 7.0 0.00 0.00 0.00 58 1014.6
20260506035004 50 230 1.0 9.0 0.00 0.00 0.00 59 1014.5
20260506034511 50 268 3.0 14.0 0.00 0.00 0.00 59 1014.4
20260506034003 50 179 7.0 13.0 0.00 0.00 0.00 59 1014.2
20260506033509 49 159 7.0 14.0 0.00 0.00 0.00 59 1013.8
20260506033121 49 172 7.0 12.0 0.00 0.00 0.00 59 1013.6
20260506032506 49 172 9.0 16.0 0.00 0.00 0.00 59 1013.5
20260506032101 49 187 9.0 16.0 0.00 0.00 0.00 60 1013.4
20260506031553 49 178 10.0 16.0 0.00 0.00 0.00 60 1013.4
20260506031102 50 192 8.0 13.0 0.00 0.00 0.00 60 1013.3
20260506030606 50 209 7.0 12.0 0.00 0.00 0.00 59 1013.1
20260506030008 50 201 8.0 13.0 0.00 0.00 0.00 56 1012.9
20260506025605 50 167 6.0 12.0 0.00 0.00 0.00 54 1012.9
20260506025007 50 163 7.0 21.0 0.00 0.00 0.00 54 1013.0
20260506024616 51 196 8.0 21.0 0.00 0.00 0.00 54 1012.9
20260506024005 51 179 11.0 21.0 0.00 0.00 0.00 50 1012.6
20260506023600 52 176 14.0 21.0 0.00 0.00 0.00 48 1012.4
20260506023107 52 179 12.0 18.0 0.00 0.00 0.00 48 1012.8
20260506022557 52 221 9.0 21.0 0.00 0.00 0.00 45 1012.8
20260506022046 50 230 10.0 20.0 0.00 0.00 0.00 49 1013.0
20260506021559 49 199 8.0 19.0 0.00 0.00 0.00 63 1013.1
20260506021104 49 159 11.0 20.0 0.00 0.00 0.00 66 1013.0
20260506020505 49 180 13.0 21.0 0.00 0.00 0.00 66 1012.9
20260506020012 50 198 12.0 17.0 0.00 0.00 0.00 62 1013.0
20260506015503 51 209 9.0 16.0 0.00 0.00 0.00 59 1013.1
20260506015010 51 227 7.0 15.0 0.00 0.00 0.00 56 1013.1
20260506014603 51 167 6.0 13.0 0.00 0.00 0.00 54 1013.2
20260506014004 52 240 8.0 19.0 0.00 0.00 0.00 53 1013.3
20260506013600 52 202 7.0 19.0 0.00 0.00 0.00 52 1013.1
20260506013002 52 198 10.0 20.0 0.00 0.00 0.00 54 1013.1
20260506012509 52 196 10.0 21.0 0.00 0.00 0.00 54 1012.9
20260506012104 52 194 10.0 18.0 0.00 0.00 0.00 54 1012.9
20260506011521 53 188 9.0 23.0 0.00 0.00 0.00 53 1012.8
20260506011103 53 178 11.0 23.0 0.00 0.00 0.00 52 1012.7
20260506010504 54 200 15.0 23.0 0.00 0.00 0.00 50 1012.6
20260506010120 54 164 10.0 20.0 0.00 0.00 0.00 52 1012.5
20260506005551 54 162 12.0 21.0 0.00 0.00 0.00 53 1012.3
20260506005101 54 162 12.0 21.0 0.00 0.00 0.00 53 1012.3
20260506004549 54 160 13.0 21.0 0.00 0.00 0.00 51 1012.1
20260506004055 54 182 9.0 19.0 0.00 0.00 0.00 48 1012.1
20260506003601 54 173 11.0 19.0 0.00 0.00 0.00 48 1012.0
20260506003004 54 194 9.0 17.0 0.00 0.00 0.00 45 1011.8
20260506002559 54 173 10.0 17.0 0.00 0.00 0.00 47 1011.9
20260506002002 54 210 11.0 25.0 0.00 0.00 0.00 50 1011.9
20260506001601 55 163 12.0 25.0 0.00 0.00 0.00 52 1011.7
20260506001104 55 206 8.0 18.0 0.00 0.00 0.00 41 1011.8
20260506000558 55 160 7.0 17.0 0.00 0.00 0.00 45 1011.8
20260506000054 55 178 9.0 20.0 0.00 0.00 0.00 45 1011.8
20260505235552 56 194 10.0 20.0 0.00 0.00 0.00 45 1011.9
20260505235059 56 205 10.0 23.0 0.00 0.00 0.00 44 1011.9
20260505234502 57 212 13.0 23.0 0.00 0.00 0.00 42 1011.7
20260505234012 58 188 10.0 21.0 0.00 0.00 0.00 42 1011.7
20260505233604 59 200 10.0 20.0 0.00 0.00 0.00 39 1011.8
20260505233051 60 203 11.0 20.0 0.00 0.00 0.00 39 1011.6
20260505232542 60 223 12.0 22.0 0.00 0.00 0.00 36 1011.4
20260505232050 61 178 9.0 22.0 0.00 0.00 0.00 35 1011.5
20260505231556 61 152 8.0 22.0 0.00 0.00 0.00 33 1011.4
20260505231103 62 148 10.0 18.0 0.00 0.00 0.00 33 1011.3
20260505230555 63 188 11.0 17.0 0.00 0.00 0.00 31 1011.3
20260505225553 63 219 3.0 15.0 0.00 0.00 0.00 28 1011.2
20260505225100 63 222 4.0 12.0 0.00 0.00 0.00 28 1011.1
20260505224605 63 222 5.0 11.0 0.00 0.00 0.00 27 1011.3
20260505224007 63 280 5.0 13.0 0.00 0.00 0.00 27 1011.2
20260505223603 64 225 2.0 13.0 0.00 0.00 0.00 28 1011.3
20260505223015 64 167 5.0 10.0 0.00 0.00 0.00 29 1011.5
20260505222605 64 182 5.0 10.0 0.00 0.00 0.00 30 1011.7
20260505222005 64 272 3.0 11.0 0.00 0.00 0.00 30 1011.7
20260505221605 64 221 4.0 11.0 0.00 0.00 0.00 31 1011.8
20260505221104 64 236 7.0 12.0 0.00 0.00 0.00 30 1011.7
20260505220505 65 198 5.0 11.0 0.00 0.00 0.00 30 1011.8
20260505220056 65 187 2.0 9.0 0.00 0.00 0.00 30 1011.9
20260505215554 65 244 5.0 16.0 0.00 0.00 0.00 31 1011.9
20260505215100 65 250 6.0 17.0 0.00 0.00 0.00 30 1012.0
20260505214508 66 232 8.0 16.0 0.00 0.00 0.00 30 1012.0
20260505214008 66 219 7.0 14.0 0.00 0.00 0.00 30 1012.1
20260505213512 66 185 6.0 16.0 0.00 0.00 0.00 30 1012.0
20260505213003 65 188 10.0 16.0 0.00 0.00 0.00 29 1012.1
20260505212557 66 223 5.0 13.0 0.00 0.00 0.00 29 1012.2
20260505212001 66 180 9.0 13.0 0.00 0.00 0.00 28 1012.3
20260505211556 67 264 3.0 11.0 0.00 0.00 0.00 28 1012.4
20260505211103 67 196 6.0 12.0 0.00 0.00 0.00 27 1012.3
20260505210553 67 209 8.0 12.0 0.00 0.00 0.00 28 1012.5
20260505210049 67 217 4.0 18.0 0.00 0.00 0.00 25 1012.5
20260505205551 67 311 5.0 18.0 0.00 0.00 0.00 26 1012.6
20260505205057 66 281 9.0 17.0 0.00 0.00 0.00 25 1012.6
20260505204612 67 309 4.0 14.0 0.00 0.00 0.00 25 1012.7
20260505204056 68 311 10.0 14.0 0.00 0.00 0.00 24 1012.7
20260505203603 69 220 6.0 12.0 0.00 0.00 0.00 24 1012.8
20260505203005 67 256 6.0 11.0 0.00 0.00 0.00 26 1012.7
20260505202512 66 205 4.0 12.0 0.00 0.00 0.00 26 1012.9
20260505202003 66 277 3.0 18.0 0.00 0.00 0.00 27 1013.0
20260505201512 65 294 3.0 16.0 0.00 0.00 0.00 27 1013.1
20260505201001 64 103 7.0 16.0 0.00 0.00 0.00 28 1013.0
20260505200507 65 208 7.0 14.0 0.00 0.00 0.00 27 1013.2
20260505195502 66 296 4.0 11.0 0.00 0.00 0.00 26 1013.4
20260505195010 66 230 3.0 11.0 0.00 0.00 0.00 26 1013.5
20260505194501 66 123 2.0 11.0 0.00 0.00 0.00 26 1013.5
20260505194013 66 207 2.0 13.0 0.00 0.00 0.00 24 1013.6
20260505193607 67 196 7.0 17.0 0.00 0.00 0.00 24 1013.7
20260505193005 67 188 5.0 17.0 0.00 0.00 0.00 25 1013.7
20260505192600 66 250 2.0 17.0 0.00 0.00 0.00 24 1013.7
20260505192103 68 173 5.0 17.0 0.00 0.00 0.00 23 1013.7
20260505191506 68 212 7.0 12.0 0.00 0.00 0.00 23 1013.7
20260505191103 67 213 3.0 12.0 0.00 0.00 0.00 23 1013.8
20260505190506 66 169 1.0 16.0 0.00 0.00 0.00 23 1013.8
20260505190011 66 166 2.0 18.0 0.00 0.00 0.00 23 1013.8
20260505185518 66 187 11.0 25.0 0.00 0.00 0.00 24 1013.8
20260505185027 64 211 5.0 25.0 0.00 0.00 0.00 24 1013.8
20260505184532 63 284 2.0 10.0 0.00 0.00 0.00 24 1013.9
20260505184041 64 309 2.0 10.0 0.00 0.00 0.00 24 1014.0
20260505183550 64 277 4.0 12.0 0.00 0.00 0.00 24 1014.1
20260505183047 63 298 3.0 12.0 0.00 0.00 0.00 24 1014.1
20260505182543 63 303 6.0 10.0 0.00 0.00 0.00 25 1014.1
20260505182049 63 220 1.0 7.0 0.00 0.00 0.00 24 1014.1
20260505181600 62 144 3.0 12.0 0.00 0.00 0.00 24 1014.0
20260505181103 61 294 2.0 13.0 0.00 0.00 0.00 25 1014.2
20260505180505 61 273 3.0 12.0 0.00 0.00 0.00 25 1014.2
20260505180027 61 282 6.0 13.0 0.00 0.00 0.00 25 1014.2
20260505175534 61 254 8.0 13.0 0.00 0.00 0.00 25 1014.3
20260505175038 61 285 2.0 13.0 0.00 0.00 0.00 24 1014.2
20260505174546 62 304 6.0 13.0 0.00 0.00 0.00 24 1014.3
20260505174038 61 300 5.0 13.0 0.00 0.00 0.00 25 1014.1
20260505173545 61 298 6.0 13.0 0.00 0.00 0.00 25 1014.1
20260505173034 61 338 7.0 13.0 0.00 0.00 0.00 25 1014.2
20260505172540 62 275 6.0 14.0 0.00 0.00 0.00 25 1014.3
20260505172046 62 214 5.0 14.0 0.00 0.00 0.00 24 1014.2
20260505171536 62 209 5.0 10.0 0.00 0.00 0.00 24 1014.2
20260505171042 61 218 3.0 10.0 0.00 0.00 0.00 25 1014.1
20260505170547 61 290 3.0 13.0 0.00 0.00 0.00 24 1014.2
20260505170054 60 294 8.0 13.0 0.00 0.00 0.00 25 1014.1
20260505165545 60 299 7.0 12.0 0.00 0.00 0.00 25 1014.0
20260505165051 61 306 7.0 12.0 0.00 0.00 0.00 24 1014.0
20260505164602 61 271 5.0 13.0 0.00 0.00 0.00 24 1014.0
20260505164105 61 311 6.0 11.0 0.00 0.00 0.00 24 1014.0
20260505163508 60 304 5.0 11.0 0.00 0.00 0.00 25 1013.9
20260505163014 59 285 3.0 11.0 0.00 0.00 0.00 25 1013.9
20260505162504 59 346 5.0 15.0 0.00 0.00 0.00 25 1014.1
20260505162012 59 325 3.0 15.0 0.00 0.00 0.00 27 1014.1
20260505161504 59 337 5.0 17.0 0.00 0.00 0.00 26 1014.2
20260505161009 58 296 10.0 17.0 0.00 0.00 0.00 26 1014.4
20260505160601 58 290 5.0 13.0 0.00 0.00 0.00 27 1014.3
20260505153120 55 296 4.0 9.0 0.00 0.00 0.00 32 1014.5
20260505152558 55 267 4.0 9.0 0.00 0.00 0.00 32 1014.6
20260505152106 55 281 6.0 9.0 0.00 0.00 0.00 33 1014.7
20260505151554 55 311 3.0 8.0 0.00 0.00 0.00 32 1014.6
20260505151101 55 306 4.0 8.0 0.00 0.00 0.00 33 1014.6
20260505150553 56 360 5.0 9.0 0.00 0.00 0.00 30 1014.6
20260505140501 52 277 2.0 5.0 0.00 0.00 0.00 39 1014.9
20260505140108 52 284 2.0 7.0 0.00 0.00 0.00 39 1015.0
20260505124504 51 290 4.0 9.0 0.00 0.00 0.00 42 1015.1
20260505124058 51 311 2.0 9.0 0.00 0.00 0.00 42 1015.3
20260505123502 51 313 4.0 9.0 0.00 0.00 0.00 42 1015.2
20260505123100 51 288 4.0 8.0 0.00 0.00 0.00 42 1015.2
20260505122606 51 304 3.0 11.0 0.00 0.00 0.00 42 1015.1
20260505122054 51 265 6.0 11.0 0.00 0.00 0.00 42 1015.0
20260505121545 51 300 4.0 8.0 0.00 0.00 0.00 42 1015.0
20260505121053 51 294 3.0 9.0 0.00 0.00 0.00 42 1015.1
20260505120542 51 294 4.0 9.0 0.00 0.00 0.00 43 1015.1
20260505120100 51 325 3.0 7.0 0.00 0.00 0.00 42 1015.2
20260505115554 51 296 2.0 4.0 0.00 0.00 0.00 42 1015.2
20260505115103 51 306 2.0 6.0 0.00 0.00 0.00 41 1015.2
20260505114504 52 305 3.0 10.0 0.00 0.00 0.00 41 1015.2
20260505114011 52 273 5.0 10.0 0.00 0.00 0.00 41 1015.1
20260505113503 52 304 6.0 11.0 0.00 0.00 0.00 41 1015.0
20260505113009 52 271 6.0 11.0 0.00 0.00 0.00 41 1015.0
20260505112606 52 294 6.0 10.0 0.00 0.00 0.00 41 1015.1
20260505112055 52 257 4.0 11.0 0.00 0.00 0.00 40 1015.1
20260505111603 52 261 4.0 8.0 0.00 0.00 0.00 40 1015.1
20260505111010 52 297 3.0 7.0 0.00 0.00 0.00 39 1015.0
20260505110513 52 242 1.0 8.0 0.00 0.00 0.00 39 1015.0
20260505102009 53 282 4.0 7.0 0.00 0.00 0.00 35 1015.0
20260505101605 53 282 3.0 6.0 0.00 0.00 0.00 35 1015.0
20260505101008 53 286 2.0 8.0 0.00 0.00 0.00 35 1015.1
20260505100513 53 272 3.0 8.0 0.00 0.00 0.00 35 1015.0
20260505100104 53 293 3.0 8.0 0.00 0.00 0.00 35 1014.9
20260505095502 54 272 3.0 10.0 0.00 0.00 0.00 35 1014.9
20260505095007 54 287 5.0 10.0 0.00 0.00 0.00 35 1014.7
20260505094603 54 302 5.0 11.0 0.00 0.00 0.00 35 1014.8
20260505094003 54 246 6.0 12.0 0.00 0.00 0.00 34 1014.9
20260505093511 54 292 6.0 14.0 0.00 0.00 0.00 34 1014.8
20260505093017 54 289 7.0 14.0 0.00 0.00 0.00 34 1014.8
20260505092522 54 321 7.0 14.0 0.00 0.00 0.00 34 1014.8
20260505092029 54 286 6.0 14.0 0.00 0.00 0.00 34 1014.7
20260505091534 54 273 8.0 13.0 0.00 0.00 0.00 34 1014.7
20260505091041 55 260 6.0 18.0 0.00 0.00 0.00 33 1014.8
20260505090548 55 291 8.0 16.0 0.00 0.00 0.00 33 1014.7
20260505090039 55 292 9.0 15.0 0.00 0.00 0.00 33 1014.9
20260505085547 55 273 6.0 12.0 0.00 0.00 0.00 33 1014.8
20260505085057 55 301 5.0 14.0 0.00 0.00 0.00 33 1015.0
20260505084602 55 200 7.0 14.0 0.00 0.00 0.00 33 1015.0
20260505084054 55 306 6.0 13.0 0.00 0.00 0.00 33 1015.0
20260505083600 55 265 8.0 14.0 0.00 0.00 0.00 32 1015.0
20260505083105 55 298 7.0 14.0 0.00 0.00 0.00 32 1015.1
20260505082508 55 273 7.0 16.0 0.00 0.00 0.00 31 1015.0
20260505082014 55 281 8.0 16.0 0.00 0.00 0.00 31 1015.1
20260505081521 55 279 5.0 11.0 0.00 0.00 0.00 31 1015.2
20260505081029 56 272 6.0 12.0 0.00 0.00 0.00 30 1015.2
20260505080533 56 244 6.0 12.0 0.00 0.00 0.00 29 1015.2
20260505080039 56 270 7.0 14.0 0.00 0.00 0.00 28 1015.3
20260505075544 56 291 9.0 14.0 0.00 0.00 0.00 28 1015.1
20260505075050 56 280 6.0 10.0 0.00 0.00 0.00 27 1015.2
20260505074555 56 255 5.0 11.0 0.00 0.00 0.00 26 1015.3
20260505074046 56 315 5.0 15.0 0.00 0.00 0.00 26 1015.2
20260505073554 56 284 7.0 15.0 0.00 0.00 0.00 26 1015.2
20260505073043 56 260 8.0 17.0 0.00 0.00 0.00 25 1015.3
20260505072551 56 279 6.0 15.0 0.00 0.00 0.00 25 1015.2
20260505072057 56 259 7.0 18.0 0.00 0.00 0.00 25 1015.4
20260505071548 56 260 7.0 18.0 0.00 0.00 0.00 25 1015.4
20260505071056 56 305 5.0 13.0 0.00 0.00 0.00 24 1015.4
20260505070602 56 324 7.0 15.0 0.00 0.00 0.00 24 1015.3
20260505070005 56 258 8.0 15.0 0.00 0.00 0.00 23 1015.4
20260505065601 56 273 8.0 11.0 0.00 0.00 0.00 23 1015.4
20260505065004 56 273 4.0 8.0 0.00 0.00 0.00 22 1015.4
20260505064602 56 288 3.0 9.0 0.00 0.00 0.00 22 1015.3
20260505064105 56 257 3.0 9.0 0.00 0.00 0.00 22 1015.2
20260505063556 56 265 3.0 9.0 0.00 0.00 0.00 21 1015.2
20260505063047 57 279 4.0 9.0 0.00 0.00 0.00 22 1015.1
20260505062555 57 270 4.0 8.0 0.00 0.00 0.00 22 1015.1
20260505062100 57 265 3.0 8.0 0.00 0.00 0.00 21 1015.1
20260505061505 57 276 3.0 9.0 0.00 0.00 0.00 20 1015.0
20260505061059 57 271 4.0 9.0 0.00 0.00 0.00 20 1015.1
20260505060503 57 286 4.0 7.0 0.00 0.00 0.00 20 1014.9
20260505060040 58 281 4.0 11.0 0.00 0.00 0.00 20 1014.9
20260505055547 58 284 4.0 11.0 0.00 0.00 0.00 20 1015.0
20260505055055 58 267 5.0 11.0 0.00 0.00 0.00 20 1015.0
20260505054600 58 281 5.0 10.0 0.00 0.00 0.00 19 1014.9
20260505054053 58 257 3.0 11.0 0.00 0.00 0.00 19 1014.9
20260505053556 58 244 3.0 14.0 0.00 0.00 0.00 19 1014.9
20260505053109 59 176 4.0 14.0 0.00 0.00 0.00 19 1014.9
20260505052538 59 222 5.0 12.0 0.00 0.00 0.00 19 1014.9
20260505052044 59 225 3.0 8.0 0.00 0.00 0.00 18 1014.9
20260505051550 59 224 5.0 11.0 0.00 0.00 0.00 19 1015.0
20260505051100 59 194 5.0 11.0 0.00 0.00 0.00 19 1015.0
20260505050549 59 217 5.0 12.0 0.00 0.00 0.00 19 1014.9
20260505050104 59 258 5.0 9.0 0.00 0.00 0.00 20 1014.6